Weather in Roquebrune-Cap-Martin

France     43°45′51″N   7°28′52″E
temp.,
°C
wind,
m/s
gust,
m/s
humid.,
%
clouds,
%
prec.,
mm/h
press.,
hPa
HPBL,
m
9 march, tue
tue901:00+13n4459100 0.0 101478
04:00+12nnw4457100 0.0 1013157
07:00+12n2353100 0.0 1014189
10:00+12sse316098 0.0 1014495
13:00+11sse236472 0.0 1013416
16:00+11se126319 0.4 1012399
19:00+10wnw338359 3.0 1012222
22:00+10wsw3481100 4.4 1014300
10 march, wed
wed1001:00+10wsw337384 4.6 1014303
04:00+11n33520 0.0 1015145
07:00+11n21520 0.0 1017167
10:00+11sse22590 0.0 1018397
13:00+11sw44650 0.0 1019587
16:00+12sw55670 0.0 1019749
19:00+12wsw346810 0.0 1020737
22:00+12sw336917 0.0 1022830
11 march, thu
thu1101:00+12sw337236 0.0 1022646
04:00+11e116851 0.0 1021582
07:00+11ne216974 0.0 1021356
10:00+11ese226982 0.0 1022498
13:00+12ese227091 0.0 1022394
16:00+12sw2267100 0.0 1020292
19:00+12ne1166100 0.0 1021151
22:00+12ssw116683 0.0 1020196
12 march, fri
fri1201:00+12e116691 0.0 1019178
04:00+12ene3372100 0.0 1017255
07:00+12ese1169100 0.0 1017236
10:00+12sse2271100 0.0 1017202
13:00+12ese3378100 0.0 1016173
16:00+12e227335 0.0 1014138
19:00+14sw236618 0.0 101566
22:00+13ne34690 0.0 1016146
13 march, sat
sat1301:00+13nnw22660 0.0 101640
04:00+12nw33520 0.0 101696
07:00+12nnw33490 0.0 1017103
10:00+13sse21500 0.0 1017160
13:00+12ssw33670 0.0 1017287
16:00+12ssw33720 0.0 1015441
19:00+12sw22740 0.0 1015245
22:00+12wsw11700 0.0 1015197